Starlink 4256

operational
NORAD ID: 52994 Int'l Des: 2022-076 Owner: SPXS Country: US Constellation: starlink
LEOCIRCULAR

Über Starlink 4256

Beschreibung wird geladen...

Live-Position

3D-Globus wird geladen...

Nächste Überflüge

Höhenverlauf

Altitude vs Time

uPlot chart will show altitude changes over time

Zweizeiliger Elementsatz

1 52994U 22076J 25260.08521070 -.00000801 00000-0 -32271-4 0 9994
2 52994 53.2178 153.4631 0001726 92.6836 267.4353 15.08830233176636
Epoch: 17. Sept. 2025 • Age: 14 hours

Aktueller Status

Höhe 551.4 km
Geschwindigkeit 7.59 km/s
Subsatellitenpunkt -34.02°S, 118.53°W
Startdatum 7. Juli 2022
Alter 3.1 years
Typ internet

Technische Details

Klassifizierung Payload
Masse 297.00 kg
Trockenmasse 275.00 kg
Gesamtmasse 297.00 kg
Länge 0.20 m
Durchmesser 2.80 m
Spannweite 9.00 m
Form Box + pan
Hersteller SPXS
Bus-Typ Starlink
Phasenstatus In Orbit
Besitzer/Staat SPXS/US

Große Konstellationen

Loading constellations...